This is the latest recevied weather packets stored in our database for station/object AE5HO. If no packets are shown the sender has not sent any weather packets the latest 10 day(s).
| Time | Temp. | Humidity | Pressure | Rain* | Wind** | Luminosity | Snow |
|---|---|---|---|---|---|---|---|
| 1787782198 | 37.78° C | 45% | 1012.9 hPa | 0 mm | - | 32 W/m² | - |
| 1787781894 | 38.33° C | 43% | 1013.3 hPa | 0 mm | - | 40 W/m² | - |
| 1787781593 | 38.33° C | 43% | 1013.1 hPa | 0 mm | - | 48 W/m² | - |
| 1787781292 | 37.78° C | 44% | 1012.9 hPa | 0 mm | - | 43 W/m² | - |
| 1787780989 | 37.78° C | 45% | 1013.3 hPa | 0 mm | - | 43 W/m² | - |
| 1787780685 | 38.33° C | 44% | 1013.1 hPa | 0 mm | - | 43 W/m² | - |
| 1787780379 | 37.78° C | 45% | 1013.3 hPa | 0 mm | - | 45 W/m² | - |
| 1787780077 | 37.78° C | 44% | 1013.6 hPa | 0 mm | - | 50 W/m² | - |
| 1787779777 | 37.78° C | 45% | 1013.4 hPa | 0 mm | - | 55 W/m² | - |
| 1787779476 | 37.78° C | 46% | 1013.7 hPa | 0 mm | - | 45 W/m² | - |
| 1787779176 | 37.78° C | 46% | 1013.5 hPa | 0 mm | - | 44 W/m² | - |
| 1787778871 | 37.22° C | 47% | 1013.8 hPa | 0 mm | - | 45 W/m² | - |
| 1787778567 | 37.78° C | 47% | 1013.8 hPa | 0 mm | - | 43 W/m² | - |
| 1787778262 | 37.78° C | 46% | 1014 hPa | 0 mm | - | 49 W/m² | - |
| 1787777962 | 37.22° C | 48% | 1013.9 hPa | 0 mm | - | 51 W/m² | - |
| 1787777679 | 37.22° C | 49% | 1013.9 hPa | 0 mm | - | 44 W/m² | - |
| 1787777354 | 36.11° C | 49% | 1014.1 hPa | 0 mm | - | 44 W/m² | - |
| 1787777053 | 36.67° C | 49% | 1014.3 hPa | 0 mm | - | 35 W/m² | - |
| 1787776752 | 36.67° C | 47% | 1014.3 hPa | 0 mm | - | 53 W/m² | - |
| 1787776451 | 36.67° C | 47% | 1014.5 hPa | 0 mm | - | 82 W/m² | - |
| 1787776148 | 36.67° C | 46% | 1014.5 hPa | 0 mm | - | 122 W/m² | - |
| 1787775843 | 36.67° C | 46% | 1014.7 hPa | 0 mm | - | 141 W/m² | - |
| 1787775539 | 36.11° C | 51% | 1014.8 hPa | 0 mm | - | 142 W/m² | - |
| 1787775237 | 35.56° C | 50% | 1014.6 hPa | 0 mm | - | 142 W/m² | - |
| 1787774937 | 36.11° C | 49% | 1014.7 hPa | 0 mm | - | 158 W/m² | - |
* Rain latest hour (hover to see other rain measurements)
** Current wind speed in m/s (hover to see current wind gust speed)